Location: Mascot Post Office (historical)
(40.2645°N, 99.5462°W)
Time: 17:18:32
(UTC+00:00)

Cosmos 1812 - Pass Details

Date: 14 July 2020
Orbit: 516 x 522 km, 82.5° (Epoch: 05 August)

Event Time Altitude Azimuth Distance (km) Brightness Sun altitude
Rises 06:04:28 0° 0° (N) 2,650 7.5 -27.5°
Reaches altitude 10° 06:06:44 10° 9° (N) 1,756 6.3 -27.5°
Enters shadow 06:08:58 28° 34° (NE) 1,007 4.5 -27.6°
